Jordan Valley, OR

7:10 AM MDT on October 01, 2016 (GMT -0600)
Rome State

Weather History for KREO - October, 2011

Change the Weather History Date:

Monday, October 31, 2011

  Actual Average Record
Temperature  
Mean Temperature 40 °F 43 °F  
Max Temperature 58 °F 57 °F 74 °F (2015)
Min Temperature 21 °F 28 °F 13 °F (2002)
Degree Days  
Heating Degree Days 25 22  
Month to date heating degree days 478 533  
Since 1 July heating degree days 551 757  
Cooling Degree Days 0 0  
Month to date cooling degree days 3 1  
Year to date cooling degree days 430 507  
Moisture  
Dew Point 29 °F    
Average Humidity 50    
Maximum Humidity 76    
Minimum Humidity 24    
Precipitation  
Precipitation 0.00 in 0.03 in 0.26 in (1992)
Month to date precipitation 0.92 0.74  
Year to date precipitation 9.69 7.47  
Sea Level Pressure  
Sea Level Pressure 30.14 in    
Wind  
Wind Speed 7 mph (North)    
Max Wind Speed 16 mph    
Max Gust Speed 24 mph    
T = Trace of Precipitation, MM = Missing Value Source: NWS Daily Summary

Daily Weather History Graph

Daily Weather History Graph

Search for Another Location

Airport or City:

Trip Planner

Search our weather history database for the weather conditions in past years. The results will help you decide how hot, cold, wet, or windy it might be!

Date:

Astronomy

Oct. 31, 2011 Rise Set
Actual Time 7:23 AM PDT 5:45 PM PDT
Civil Twilight 6:54 AM PDT 6:15 PM PDT
Nautical Twilight 6:21 AM PDT 6:48 PM PDT
Astronomical Twilight 5:48 AM PDT 7:20 PM PDT
Moon 12:36 PM PDT (10/31) 10:24 PM PDT (10/31)
Length of Visible Light 11h 20m
Length of Day
10h 22m
Waxing Crescent, 31% of the Moon is Illuminated
Oct 31
Waxing Crescent
Nov 2
First Quarter
Nov 10
Full
Nov 18
Last Quarter
Nov 24
New

Hourly Weather History & Observations

Time (PDT) Temp. Windchill Dew Point Humidity Pressure Visibility Wind Dir Wind Speed Gust Speed Precip Events Conditions
12:52 AM 48.9 °F - 34.0 °F 56% 30.11 in - Calm Calm - N/A   Unknown
1:52 AM 48.0 °F - 34.0 °F 58% 30.11 in - SSE 6.9 mph - N/A   Unknown
2:52 AM 44.1 °F 39.0 °F 34.0 °F 68% 30.10 in - SE 9.2 mph - N/A   Unknown
3:52 AM 43.0 °F 38.2 °F 34.0 °F 71% 30.09 in - SSE 8.1 mph - N/A   Unknown
4:52 AM 41.0 °F 35.8 °F 34.0 °F 76% 30.10 in - SSE 8.1 mph - N/A   Unknown
5:52 AM 42.1 °F 36.6 °F 35.1 °F 76% 30.10 in - SE 9.2 mph - N/A   Unknown
6:52 AM 45.0 °F - 37.0 °F 74% 30.14 in - Calm Calm - N/A   Unknown
7:52 AM 48.0 °F - 37.9 °F 68% 30.13 in - SE 3.5 mph - N/A   Unknown
8:52 AM 50.0 °F - 39.0 °F 66% 30.14 in - Calm Calm - N/A   Unknown
9:52 AM 51.1 °F - 39.9 °F 66% 30.15 in - NE 5.8 mph - N/A   Unknown
10:52 AM 55.0 °F - 39.9 °F 57% 30.17 in - Variable 5.8 mph - N/A   Unknown
11:52 AM 55.9 °F - 36.0 °F 47% 30.14 in - WNW 8.1 mph - N/A   Unknown
12:52 PM 55.9 °F - 34.0 °F 44% 30.12 in - West 4.6 mph - N/A   Unknown
1:52 PM 55.9 °F - 26.1 °F 32% 30.10 in - North 16.1 mph 24.2 mph N/A   Unknown
2:52 PM 55.0 °F - 28.0 °F 35% 30.10 in - NNE 13.8 mph - N/A   Unknown
3:52 PM 55.9 °F - 23.0 °F 28% 30.10 in - WNW 9.2 mph 20.7 mph N/A   Unknown
4:52 PM 54.0 °F - 18.0 °F 24% 30.11 in - NNW 13.8 mph - N/A   Unknown
5:52 PM 46.9 °F - 21.0 °F 36% 30.15 in - North 8.1 mph 17.3 mph N/A   Unknown
6:52 PM 42.1 °F 37.7 °F 21.9 °F 45% 30.17 in - NNE 6.9 mph - N/A   Unknown
7:52 PM 42.1 °F 38.4 °F 21.9 °F 45% 30.18 in - NW 5.8 mph - N/A   Unknown
8:52 PM 39.9 °F 33.9 °F 19.0 °F 43% 30.20 in - North 9.2 mph - N/A   Unknown
9:52 PM 39.0 °F 31.8 °F 19.9 °F 46% 30.21 in - NNW 11.5 mph - N/A   Unknown
10:52 PM 34.0 °F 28.8 °F 19.0 °F 54% 30.22 in - NNW 5.8 mph - N/A   Unknown
11:52 PM 32.0 °F 27.5 °F 19.0 °F 59% 30.24 in - NNE 4.6 mph - N/A   Unknown